Location: Julian California
(33.0790°N, 116.6010°W)
Time: 22:26:44
(UTC-08:00)

Cosmos 1975 Rocket - Pass Details

Date: 19 May 2017
Orbit: 604 x 633 km, 82.5° (Epoch: 20 November)

Event Time Altitude Azimuth Distance (km) Brightness Sun altitude
Rises 20:07:12 0° 170° (S) 2,906 6.1 -5.5°
Reaches altitude 10° 20:09:30 10° 163° (SSE) 2,004 5.3 -5.9°
Maximum altitude 20:13:42 43° 92° (E) 887 3.5 -6.7°
Drops below altitude 10° 20:17:57 10° 21° (NNE) 2,016 5.8 -7.5°
Sets 20:20:16 0° 15° (NNE) 2,926 6.7 -7.9°
